ORBCOMM FM 36 DEB

基本信息
目录编号:
56435
目录名称:
ORBCOMM FM 36 DEB
国际标识:
1999-065L
轨道中心:
EARTH
物体状态:
已陨落(2023-08-22)
发射日期:
1999-12-04 UTC
轨道信息
数据来源: 国际轨道数据
星历时间: 2023-08-14T10:26:38+0800
半长轴: 6885.209km
偏心率: 0.0004834
轨道倾角: 44.884°
近地点辐角: 340.873°
升交点赤经: 38.956°
平近点角: 19.197°
近地点: 503.745km
远地点: 510.403km
周期: 94.762分钟
每日圈数: 15.195924
详细信息
发射场:
AFETR
轨道高度:
LEO
数据来源:
AOE Integration Group
参考系:
TEME
时间系统:
UTC
历元类型:
SGP4
2D轨道图
3D轨道图
轨道高度分析图
轨道倾角分析图
轨道综合分析图
查看轨道综合分析图